Probability
4 6 6 6 4 2 3 4 6 8 9 7 5 4 3 4 3 2 0 0 0 0 1 2 5 6 6 6 6 8 10 11 10 9 7 6 4 3 3 3 3 2 2
5 6 6 5 3 1 2 4 6 8 9 8 7 5 4 5 6 4 2 1 1 0 0 2 4 5 5 6 6 7 7 8 7 6 6 5 3 2 2 2 2 1 1
6 7 6 5 2 1 1 3 6 9 9 9 9 8 7 8 8 7 5 5 3 1 2 3 4 4 5 6 6 5 5 5 5 4 4 5 3 1 1 1 1 0 0
7 8 7 5 2 1 2 3 6 9 10 10 11 11 11 10 9 7 7 8 6 4 5 5 5 4 4 6 7 6 5 4 4 3 4 5 4 1 0 0 1 0 0
7 7 7 5 2 1 2 3 6 9 12 12 13 14 13 10 7 6 7 9 8 7 6 6 6 5 4 5 6 6 5 4 3 3 3 4 3 1 0 0 0 0 0
5 6 6 5 3 1 2 4 6 9 11 13 14 14 14 11 6 4 6 8 9 9 8 7 7 6 5 5 5 5 4 3 3 3 3 3 2 0 0 0 0 0 0
4 5 5 4 3 2 2 5 7 10 11 11 12 13 13 10 6 3 4 7 9 9 9 8 8 7 6 6 5 3 2 2 2 3 3 3 2 1 0 0 0 0 0
3 3 3 3 2 2 3 6 8 10 11 11 11 12 12 9 5 3 4 6 8 9 10 9 9 8 7 6 5 4 3 3 2 2 2 2 2 1 0 0 0 0 0
1 1 1 1 1 1 2 5 7 9 10 11 11 11 10 8 4 2 3 6 9 10 11 10 10 9 7 5 5 6 6 5 3 1 1 1 1 1 0 0 0 0 0
1 1 2 1 0 0 2 4 7 9 10 10 10 10 10 6 3 1 2 7 11 13 13 12 11 9 6 3 3 5 6 5 4 2 1 1 0 0 0 0 0 0 0
2 2 2 1 0 1 2 4 6 9 10 9 9 9 8 6 4 2 2 6 12 15 16 15 13 10 5 2 2 4 4 4 4 3 2 2 1 0 0 0 0 0 0
4 3 1 0 1 1 3 4 6 8 10 9 9 9 8 6 6 4 3 4 9 14 16 16 14 11 6 2 1 2 2 2 3 3 3 3 2 1 0 0 0 0 0
4 3 1 1 2 3 3 3 5 7 9 9 9 8 8 8 8 7 5 4 5 9 12 13 11 8 6 3 2 1 1 1 2 3 4 4 4 3 1 0 0 0 0
4 4 3 3 3 3 3 3 4 6 8 8 8 7 7 8 8 8 7 6 5 5 7 8 7 6 5 5 5 3 2 3 3 4 5 5 5 4 2 1 1 0 0
5 5 4 3 3 3 3 3 4 5 6 6 6 5 5 7 7 6 5 5 5 4 4 5 5 6 6 6 6 6 5 5 5 5 4 4 4 4 3 2 2 1 0
7 6 4 3 3 3 3 3 3 3 3 3 3 2 4 5 3 2 2 2 2 2 2 4 5 6 5 5 6 6 7 7 7 6 5 4 3 3 3 3 3 2 1
8 6 4 3 3 3 3 3 3 2 1 1 1 1 1 1 1 0 0 0 0 0 1 4 6 6 5 4 4 5 6 7 8 8 7 6 5 4 4 3 3 3 2
5 4 3 2 2 2 2 2 2 1 0 0 0 0 0 0 0 0 0 0 1 1 2 4 5 6 5 4 3 4 4 5 7 9 9 9 8 7 5 4 3 3 2
1 1 1 1 1 1 1 1 1 1 0 0 0 0 0 0 0 0 0 0 1 2 2 3 4 4 4 3 3 3 3 4 5 7 8 9 9 9 8 6 4 4 3
0 0 0 0 0 0 0 0 0 0 0 0 0 1 0 0 0 0 0 0 1 1 1 2 1 2 3 3 3 3 3 4 4 5 7 8 9 9 9 8 6 5 5
0 0 0 0 0 0 0 0 0 0 0 0 0 0 0 0 0 0 0 0 0 0 0 1 1 1 3 3 3 3 4 5 6 6 6 7 7 8 8 8 7 6 5
1 2 1 1 1 0 0 0 0 0 0 1 1 1 1 0 0 0 0 0 0 0 0 1 2 2 2 2 2 3 4 5 6 6 6 6 6 6 5 6 6 5 4
3 3 3 2 2 1 1 1 1 1 1 2 2 2 2 1 1 1 1 1 1 0 0 1 1 1 1 1 1 1 3 4 4 5 5 5 4 4 3 2 3 3 3
2 2 3 3 3 3 2 2 2 2 3 3 3 3 3 2 2 2 2 2 2 1 1 0 0 0 0 0 0 0 1 2 3 5 5 5 4 3 3 1 1 1 2
1 1 1 2 2 2 2 2 2 2 2 2 2 2 2 1 1 1 2 3 3 3 2 1 0 0 0 0 0 0 0 0 2 3 4 5 4 3 2 1 1 1 2
0 0 0 1 1 1 1 1 1 1 1 1 1 1 1 0 0 0 1 2 3 3 2 1 0 0 0 0 0 0 0 0 0 1 2 4 4 2 1 1 1 2 3
Wind_Speed
2 1 1 1 1 1 1 0 0 0 1 0 0 1 1 1 1 1 1 2 2 2 2 2 1 1 1 1 1 1 0 1 2 2 1 2 2 3 3 3 2 2 2
2 2 2 1 1 1 0 0 0 0 0 0 0 1 0 0 1 1 1 1 1 1 1 1 1 1 1 1 1 0 0 0 1 2 2 1 2 2 3 3 3 2 2
2 2 2 2 1 1 0 0 1 1 1 1 0 0 0 0 0 1 1 1 1 1 1 1 0 1 1 0 0 0 0 0 0 1 1 1 1 2 2 3 3 2 3
2 2 2 2 1 1 0 0 0 1 1 0 0 0 1 1 0 1 2 1 1 1 1 1 1 1 1 1 1 0 0 0 0 0 1 1 1 2 1 2 2 3 3
3 2 2 2 1 1 1 1 0 1 1 0 0 1 1 0 0 1 1 1 1 0 0 1 1 1 2 2 1 1 1 1 1 1 1 1 1 1 1 1 2 3 2
3 2 2 2 2 1 1 1 1 1 0 1 0 0 1 1 1 1 2 1 1 1 1 2 2 1 1 2 2 2 2 2 2 2 1 2 2 2 1 1 1 2 2
3 3 2 2 2 2 2 1 1 1 1 0 0 0 1 2 1 1 2 1 1 1 1 1 1 1 1 1 2 2 2 2 3 3 3 3 3 2 2 2 2 2 3
2 3 3 3 2 2 2 2 2 1 1 1 1 1 1 2 2 2 1 1 1 1 2 2 2 2 1 1 1 1 1 1 2 2 3 3 3 2 2 2 2 2 2
4 4 3 3 3 3 3 2 2 2 2 1 2 2 1 3 3 2 1 1 1 1 2 2 2 2 2 2 1 1 1 2 1 1 2 2 2 2 1 1 0 1 2
4 4 3 4 4 4 4 3 1 2 2 2 1 2 2 2 3 2 2 1 1 2 1 1 2 2 2 3 3 2 2 2 1 1 2 2 2 1 2 2 2 1 1
3 2 3 3 3 3 3 2 2 2 1 1 1 2 2 3 3 3 3 2 2 2 2 2 2 2 3 3 3 3 4 3 2 1 1 1 1 1 1 2 2 2 2
2 2 2 3 2 2 2 2 2 2 1 1 1 2 2 3 3 3 3 3 3 3 3 2 2 3 3 3 3 3 4 2 1 1 1 2 2 2 2 2 2 3 3
1 2 2 2 2 2 3 3 2 2 2 2 2 2 2 2 2 3 3 4 4 3 3 3 3 3 3 3 3 3 3 2 2 2 3 3 3 3 2 1 1 2 2
1 2 2 2 2 1 2 2 2 2 3 3 2 2 2 2 2 2 2 2 3 2 2 2 3 3 2 2 2 2 2 2 2 3 3 3 2 1 1 1 1 1 1
1 2 2 2 2 1 1 2 3 3 4 4 3 3 3 4 4 4 3 2 2 2 1 1 1 1 1 2 1 1 1 2 2 3 3 2 2 2 2 1 1 1 2
1 1 1 1 1 1 1 2 2 3 4 5 5 5 4 5 4 4 4 4 3 2 2 1 2 2 3 3 3 2 2 3 3 3 3 3 3 3 2 2 2 2 2
1 1 1 1 1 1 1 1 2 3 2 3 4 5 5 4 4 4 4 3 3 3 2 2 3 3 3 3 3 3 4 3 3 3 3 3 3 3 3 2 2 2 3
1 1 1 1 1 1 1 2 2 2 2 3 3 3 4 4 4 4 4 2 1 2 3 3 3 3 4 3 3 4 3 3 3 3 3 3 3 3 3 3 3 3 3
1 1 1 1 1 1 1 1 2 2 2 3 2 2 2 3 3 3 3 2 3 3 3 4 4 4 4 4 4 4 4 3 3 3 3 4 3 3 3 4 3 4 3
1 2 1 1 1 1 1 2 2 2 3 3 3 3 2 1 1 2 2 3 3 4 4 4 4 4 4 3 3 3 3 3 3 3 3 3 3 3 4 4 4 3 3
1 1 2 1 1 1 2 2 3 3 3 3 4 4 4 3 3 3 3 3 4 4 4 4 4 4 3 3 3 3 4 3 3 3 3 3 3 3 3 4 4 4 3
1 1 1 1 1 2 2 3 3 3 4 4 3 3 5 3 3 3 3 3 4 4 4 3 3 3 3 3 3 3 4 4 3 3 3 3 3 3 3 3 3 3 3
1 1 1 1 1 2 2 2 2 3 3 4 3 3 3 3 3 3 3 3 3 3 3 3 3 3 3 3 3 3 4 4 3 3 3 3 3 3 3 4 4 4 4
1 1 1 2 2 2 2 2 3 3 4 4 3 3 3 3 3 3 3 3 3 3 2 2 3 4 5 3 3 3 3 3 3 3 4 4 4 3 3 3 4 5 4
1 1 1 1 2 2 2 3 3 3 4 4 3 3 3 3 3 3 3 3 3 3 4 3 3 4 5 5 4 3 3 4 4 3 3 3 4 4 4 4 4 4 4
1 1 1 1 2 2 2 3 3 3 3 3 3 3 2 3 3 3 3 3 3 3 3 3 4 4 4 4 4 3 2 3 3 3 3 2 3 3 3 3 4 4 4
Wind_Direction
140 131 113 115 114 109 137 196 230 34 62 55 81 55 31 16 45 78 78 80 85 64 59 80 58 50 68 67 87 102 117 175 229 286 299 333 337 344 345 345 340 330 330
165 149 148 146 131 119 185 249 132 91 69 191 158 133 203 162 70 100 104 96 114 109 93 90 57 74 68 69 106 120 216 231 211 272 303 332 329 331 335 339 351 346 334
156 154 148 146 150 158 233 262 151 132 78 52 71 177 254 240 159 138 133 136 148 152 140 136 151 116 85 72 100 103 257 310 208 236 287 312 316 332 339 344 348 342 342
157 162 154 173 177 180 180 144 172 142 133 158 251 300 299 299 196 163 155 159 153 153 171 189 188 173 196 207 173 189 170 117 127 192 266 310 312 330 340 338 338 341 335
169 167 179 184 177 159 149 150 134 160 191 190 56 345 314 320 274 151 164 164 173 197 287 261 214 196 204 211 204 200 180 177 175 187 235 290 299 309 313 310 313 321 309
171 196 194 177 172 180 186 173 157 170 46 71 76 282 310 315 6 140 152 177 189 210 255 275 259 264 267 262 253 232 203 196 195 197 229 258 273 277 284 284 294 309 301
188 201 193 191 197 203 194 173 187 194 177 125 305 288 289 300 317 247 197 178 206 227 242 259 270 284 243 256 286 292 266 234 196 194 216 243 250 245 243 267 260 262 270
194 209 202 196 201 198 183 199 217 197 189 205 236 244 278 301 297 270 226 177 237 248 247 238 235 258 250 218 249 312 295 271 238 218 227 243 249 234 224 244 254 270 284
200 208 208 200 201 194 199 210 214 193 203 218 230 231 246 286 293 267 204 192 242 274 270 255 231 243 250 184 168 232 290 299 287 264 263 274 276 255 203 148 201 268 288
215 213 206 201 203 211 210 206 214 201 211 221 246 248 241 260 279 271 227 211 230 257 270 264 248 245 241 191 184 197 238 264 282 314 322 322 308 274 217 210 210 233 275
229 212 209 208 207 212 208 202 199 203 205 219 249 276 270 267 270 259 233 217 225 238 252 264 265 258 245 222 206 211 231 238 237 246 276 302 313 294 258 236 230 226 238
224 219 219 222 218 206 202 211 199 186 202 240 252 283 286 282 271 255 235 229 227 226 243 251 257 253 247 239 224 231 227 216 209 223 253 272 278 278 279 271 253 250 253
204 221 225 224 218 210 201 211 213 193 201 233 244 265 285 288 276 259 242 240 239 235 246 252 268 269 260 254 249 232 208 206 208 227 244 255 260 265 277 285 287 273 282
240 243 220 207 222 231 214 210 215 217 218 222 227 250 274 283 278 264 245 242 245 245 258 270 274 273 260 263 262 244 224 216 219 233 246 261 269 263 259 266 270 272 283
310 271 245 225 219 234 242 239 232 229 219 213 222 225 232 254 260 248 241 247 243 232 228 264 288 296 288 283 269 252 232 224 229 241 243 252 254 253 258 253 252 254 258
329 317 265 232 215 209 248 308 313 262 248 234 231 229 244 245 253 248 251 258 258 212 183 232 253 256 255 255 252 252 244 240 238 235 236 238 240 242 250 248 238 235 249
254 283 301 280 257 238 226 246 297 319 302 258 246 245 245 250 250 250 247 247 240 186 204 238 244 244 244 244 246 246 246 246 239 234 234 238 238 238 239 240 234 237 247
285 293 284 257 255 255 250 250 254 266 290 299 285 253 251 252 247 244 231 197 238 221 236 243 245 246 243 242 245 249 253 252 245 240 238 237 230 229 234 239 237 239 247
306 283 265 256 250 252 263 269 273 272 270 278 290 286 258 242 236 239 209 209 235 244 246 249 251 252 248 244 246 249 250 250 252 248 242 239 231 226 233 240 244 242 242
295 305 309 267 257 264 264 264 269 269 269 269 266 268 267 244 253 252 233 233 237 245 248 250 250 248 248 248 248 247 251 253 250 246 246 242 238 231 233 238 239 240 239
301 301 322 300 270 267 272 267 263 262 265 268 270 266 244 238 242 245 247 247 246 250 252 253 251 251 251 251 250 249 252 261 260 253 249 244 234 237 243 242 240 238 242
290 292 287 273 273 270 268 267 267 268 271 274 280 276 249 239 239 243 248 251 252 251 249 247 249 251 250 250 247 246 249 252 255 257 257 253 246 240 244 246 245 241 239
303 302 311 307 292 293 290 287 280 277 278 279 279 277 264 250 248 250 254 257 258 260 259 250 251 260 265 260 250 242 245 250 249 247 250 253 250 244 239 239 243 243 240
299 285 289 295 298 293 291 291 286 283 282 284 282 277 270 267 263 261 264 269 271 269 259 250 251 260 268 270 259 249 249 256 255 243 242 245 246 244 243 244 244 243 241
299 288 286 287 289 291 293 293 290 288 286 285 282 277 275 276 275 272 268 269 274 273 269 261 256 262 268 269 268 267 261 251 246 246 240 236 242 244 244 243 243 247 243
297 290 288 286 288 290 288 288 291 293 289 287 286 281 278 277 278 279 281 284 285 282 281 275 268 266 270 272 271 273 254 249 253 244 232 230 240 247 246 242 242 241 241